Weather History for KJMS - November, 2011

Change the Weather History Date:

Tuesday, November 1, 2011

  Actual Average Record
Temperature  
Mean Temperature 45 °F 36 °F  
Max Temperature 51 °F 47 °F 77 °F (1904)
Min Temperature 38 °F 26 °F -5 °F (1935)
Degree Days  
Heating Degree Days 20 29  
Month to date heating degree days 20 29  
Since 1 July heating degree days 742 996  
Cooling Degree Days 0 0  
Month to date cooling degree days 0 0  
Year to date cooling degree days 497 446  
Moisture  
Dew Point 32 °F    
Average Humidity 59    
Maximum Humidity 79    
Minimum Humidity 39    
Precipitation  
Precipitation T in 0.03 in 0.48 in (1992)
Month to date precipitation T 0.03  
Year to date precipitation 21.50 17.77  
Sea Level Pressure  
Sea Level Pressure 30.01 in    
Wind  
Wind Speed 13 mph (NW)    
Max Wind Speed 21 mph    
Max Gust Speed 26 mph    
Visibility 10 miles    
Events Rain    
T = Trace of Precipitation, MM = Missing Value Source: NWS Daily Summary

Daily Weather History Graph

Daily Weather History Graph

Search for Another Location

Airport or City:

Trip Planner

Search our weather history database for the weather conditions in past years. The results will help you decide how hot, cold, wet, or windy it might be!

Date:

Astronomy

Nov. 01, 2011 Rise Set
Actual Time 8:16 AM CDT 6:18 PM CDT
Civil Twilight 7:45 AM CDT 6:50 PM CDT
Nautical Twilight 7:09 AM CDT 7:26 PM CDT
Astronomical Twilight 6:33 AM CDT 8:01 PM CDT
Moon 2:08 PM CDT (11/1) No Moon Set
Length of Visible Light 11h 05m
Length of Day
10h 02m
Waxing Crescent, 40% of the Moon is Illuminated
Nov 1
Waxing Crescent
Nov 2
First Quarter
Nov 10
Full
Nov 18
Last Quarter
Nov 25
New

Hourly Weather History & Observations

Time (CDT) Temp. Windchill Dew Point Humidity Pressure Visibility Wind Dir Wind Speed Gust Speed Precip Events Conditions
12:56 AM 51.1 °F - 41.0 °F 68% 29.81 in 10.0 mi WNW 11.5 mph - 0.01 in Rain Light Rain
1:56 AM 48.9 °F - 41.0 °F 74% 29.82 in 10.0 mi WNW 8.1 mph - 0.00 in   Overcast
2:56 AM 44.6 °F 37.4 °F 37.4 °F 76% 29.82 in 10.0 mi NW 16.1 mph - N/A   Partly Cloudy
3:56 AM 44.1 °F 35.7 °F 35.1 °F 71% 29.88 in 10.0 mi NW 20.7 mph 25.3 mph N/A   Overcast
4:56 AM 42.1 °F 34.2 °F 35.1 °F 76% 29.89 in 10.0 mi NW 16.1 mph - N/A   Scattered Clouds
5:56 AM 39.0 °F 31.0 °F 34.0 °F 82% 29.93 in 10.0 mi NW 13.8 mph - N/A   Clear
6:56 AM 41.0 °F 33.9 °F 35.6 °F 81% 29.92 in 10.0 mi NW 12.7 mph - N/A   Partly Cloudy
7:56 AM 41.0 °F 34.3 °F 35.6 °F 81% 29.94 in 10.0 mi WNW 11.5 mph - N/A   Partly Cloudy
8:56 AM 39.9 °F 34.5 °F 34.0 °F 79% 30.00 in 10.0 mi WNW 8.1 mph - N/A   Clear
9:56 AM 41.0 °F 33.1 °F 33.1 °F 73% 30.01 in 10.0 mi NW 15.0 mph - N/A   Clear
10:56 AM 45.0 °F 38.5 °F 30.9 °F 58% 30.01 in 10.0 mi NW 13.8 mph - N/A   Clear
11:56 AM 46.4 °F 40.4 °F 30.2 °F 53% 30.00 in 10.0 mi NW 13.8 mph - N/A   Clear
12:56 PM 48.9 °F - 30.9 °F 50% 30.03 in 10.0 mi WNW 12.7 mph - N/A   Clear
1:56 PM 50.0 °F - 30.0 °F 46% 30.03 in 10.0 mi NW 16.1 mph - N/A   Clear
2:56 PM 50.0 °F - 26.6 °F 40% 30.01 in 10.0 mi NNW 16.1 mph - N/A   Clear
3:56 PM 50.0 °F - 26.6 °F 40% 30.02 in 10.0 mi NNW 16.1 mph 25.3 mph N/A   Clear
4:56 PM 48.9 °F - 27.0 °F 43% 30.06 in 10.0 mi NNW 13.8 mph - N/A   Clear
5:56 PM 45.0 °F 40.1 °F 28.9 °F 53% 30.09 in 10.0 mi NW 9.2 mph - N/A   Clear
6:56 PM 41.0 °F 35.8 °F 28.0 °F 60% 30.12 in 10.0 mi WNW 8.1 mph - N/A   Clear
7:56 PM 42.1 °F 37.1 °F 28.9 °F 60% 30.15 in 10.0 mi WNW 8.1 mph - N/A   Clear
8:56 PM 42.1 °F 36.6 °F 28.0 °F 58% 30.17 in 10.0 mi NW 9.2 mph - N/A   Clear
9:56 PM 42.1 °F 35.7 °F 28.0 °F 58% 30.19 in 10.0 mi NNW 11.5 mph - N/A   Clear
10:56 PM 41.0 °F 34.7 °F 28.0 °F 60% 30.21 in 10.0 mi NW 10.4 mph - N/A   Clear
11:56 PM 39.9 °F 31.8 °F 27.0 °F 60% 30.24 in 10.0 mi NW 15.0 mph 24.2 mph N/A   Clear